Tracking 30922 objects as of 2-Jul-2025
HD Live streaming from Space Station
objects crossing your sky now

STARLINK-5775

Track STARLINK-5775 now!
10-day predictions
STARLINK-5775 is classified as:


NORAD ID: 56503
Int'l Code: 2023-065A
Perigee: 565.5 km
Apogee: 566.9 km
Inclination: 43.0 °
Period: 95.8 minutes
Semi major axis: 6937 km
RCS: Unknown
Launch date: May 14, 2023
Source: United States (US)
Launch site: AIR FORCE EASTERN TEST RANGE (AFETR)
Your satellite tracking list
Your tracking list is empty




NASA's NSSDC Master Catalog

Two Line Element Set (TLE):
1 56503U 23065A   25182.55793344  .00000790  00000-0  73524-4 0  9994
2 56503  43.0028 135.2996 0001018 291.5819  68.4915 15.02542671118846
Source of the keplerian elements: AFSPC